THOR ABLESTAR DEB, 120

Orbit data source: Space-Track

THOR ABLESTAR DEB, 120 is space debris in LEO originally from a launch on Thu, 29 Jun 1961 UTC launched from the Air Force Eastern Test Range (AFETR). Debris objects in space refer to the collection of defunct objects orbiting the Earth. Examples of debris include non-operational satellites, rocket bodies, and fragments generated from explosions, collisions, or faulty payload assembly.

Loading next visibility...
Identifier
120, 1961-015E
Orbit
LEO
Country
Flag of USUS
Related business
Manufacturer
Unknown
Mission
Spacecraft
Bus & Motor
Unknown
Mass
Unknown
Launch date (UTC)
1961-06-29 (64 years ago)
Launch vehicle
Unknown
Launch site
Air Force Eastern Test Range (AFETR)
Object type
Payload
Rocket body
Debris
Shape & HBR
Unknown
Radar Cross Section
Medium (>0.1 m² and <1 m²)

Expand to show TLE details & history
Last TLE update: 1 day ago

TLE from 1 day ago
0 THOR ABLESTAR DEB
1 00120U 61015E   25259.85559402  .00000761  00000-0  31122-3 0  9993
2 00120  66.7044  65.7332 0115377 206.1842 153.3395 14.29037338309264
Epoch: 2025-09-16T20:32Z
TLE epoch observation values (Epoch: 2025-09-16T20:32:03.323Z)
Latitude
-0°
Longitude
121.67945°
Altitude
871.216 km
Speed
7.379 km/s
True Right ascension
04h 22m 55s
True Declination
0° 00' 00"
Sunlit
Object was in daylight at epoch
Visualization orbit readout
Latitude
Unknown
Longitude
Unknown
Altitude
Unknown
Speed
Unknown
Apparent Right ascension
Unknown
Apparent Declination
Unknown
Sunlit
N/A
Visualization observer readout
Local Sidereal Time
18:28:22
Azimuth
Unknown
Elevation
Unknown
Doppler factor
Unknown
Orbital elements
Apogee altitude
876.067 km
Perigee altitude
710.583 km
Semi-major axis
7,171.462 km
Eccentricity
0.01154
Inclination
66.7044°
RAAN
65.7332°
Arg. of periapsis
206.1842°
True anomaly
153.92518°
Mean anomaly
153.3395°
Eccentric anomaly
153.63309°
Mean motion
3.57381 °/min
Orbital period
100.73 mins
BSTAR
0.00031122
Loading maneuver chart data...
Computing Atmospheric mass density...

Documentation

Showing up to 5 results
|